CZ-6A DEB, 56655

Orbit data source: Space-Track

CZ-6A DEB, 56655 is space debris in SSO originally from a launch on Fri, 11 Nov 2022 UTC launched from the Taiyaun Space Center, China (TSC). Debris objects in space refer to the collection of defunct objects orbiting the Earth. Examples of debris include non-operational satellites, rocket bodies, and fragments generated from explosions, collisions, or faulty payload assembly.

Loading next visibility...
Identifier
56655, 2022-151AGF
Orbit
SSO
Country
Flag of CNCN / PRC
Related business
Manufacturer
SAST
Mission
Spacecraft
Bus & Motor
Unknown
Mass
Unknown
Launch date (UTC)
2022-11-11 (4 years ago)
Launch vehicle
Unknown
Launch site
Taiyaun Space Center, China (TSC)
Object type
Payload
Rocket body
Debris
Shape & HBR
Unknown shape, 0.1 m
Radar Cross Section
Small (<0.1 m²)

Expand to show TLE details & history
Last TLE update: 18 hours ago

TLE from 18 hours ago
0 CZ-6A DEB
1 56655U 22151AGF 26262.85452669  .00000970  00000-0  30779-3 0  9996
2 56655  98.6162 300.2933 0085488  76.3959 284.6732 14.40227490178688
Epoch: 2026-09-19T20:30Z
TLE epoch observation values (Epoch: 2026-09-19T20:30:31.106Z)
Latitude
-0.00005°
Longitude
-6.09339°
Altitude
745.726 km
Speed
7.49 km/s
True Right ascension
20h 01m 10s
True Declination
0° 00' 00"
Sunlit
Object was in full shadow at epoch
Visualization orbit readout
Latitude
Unknown
Longitude
Unknown
Altitude
Unknown
Speed
Unknown
Apparent Right ascension
Unknown
Apparent Declination
Unknown
Sunlit
N/A
Visualization observer readout
Local Sidereal Time
07:00:25
Azimuth
Unknown
Elevation
Unknown
Doppler factor
Unknown
Orbital elements
Apogee altitude
815.852 km
Perigee altitude
693.895 km
Semi-major axis
7,133.011 km
Eccentricity
0.00855
Inclination
98.6162°
RAAN
300.2933°
Arg. of periapsis
76.3959°
True anomaly
283.723°
Mean anomaly
284.6732°
Eccentric anomaly
284.19835°
Mean motion
3.60275 °/min
Orbital period
99.92 mins
BSTAR
0.00030779
Loading maneuver chart data...
Computing Atmospheric mass density...
Loading historical data...
Loading historical data...
Loading historical data...
Loading historical data...
Loading historical data...
Loading historical data...
Loading historical data...

Documentation

Showing up to 5 results
|